Change the Weather History Date:

Sunday, December 2, 2012

  Actual Average Record
Temperature  
Mean Temperature 26 °F -  
Max Temperature 32 °F 31 °F 41 °F (2006)
Min Temperature 21 °F 23 °F 15 °F (1998)
Degree Days  
Heating Degree Days 38    
Moisture  
Dew Point 25 °F    
Average Humidity 92    
Maximum Humidity 100    
Minimum Humidity 79    
Precipitation  
Precipitation 0.02 in 0.07 in - ()
Sea Level Pressure  
Sea Level Pressure 29.60 in    
Wind  
Wind Speed 13 mph ()    
Max Wind Speed 29 mph    
Max Gust Speed -    
Visibility 1.6 miles    
Events Fog    
Averages and records for this station are not official NWS values.
T = Trace of Precipitation, MM = Missing Value Source: Averaged Metar Reports

Daily Weather History Graph

Daily Weather History Graph

Search for Another Location

Airport or City:

Trip Planner

Search our weather history database for the weather conditions in past years. The results will help you decide how hot, cold, wet, or windy it might be!

Date:

Astronomy

Dec. 02, 2012 Rise Set
Actual Time 7:33 AM CET 4:39 PM CET
Civil Twilight 7:01 AM CET 5:12 PM CET
Nautical Twilight 6:25 AM CET 5:48 PM CET
Astronomical Twilight 5:50 AM CET 6:23 PM CET
Moon 8:13 PM CET (12/2) 10:11 AM CET (12/2)
Length of Visible Light 10h 10m
Length of Day
9h 05m
Waning Gibbous, 87% of the Moon is Illuminated
Dec 2
Waning Gibbous
Dec 6
Last Quarter
Dec 13
New
Dec 20
First Quarter
Dec 28
Full

Hourly Weather History & Observations

Time (CET) Temp. Windchill Dew Point Humidity Pressure Visibility Wind Dir Wind Speed Gust Speed Precip Events Conditions
12:55 AM 26.6 °F 10.6 °F 24.8 °F 93% 29.65 in 0.0 mi SE 28.8 mph - N/A Fog Light Freezing Fog
1:00 AM 27 °F - 26 °F 92%  in 0 mi SE 28.8 mph - - Fog Heavy Fog
1:55 AM 28.4 °F 14.4 °F 26.6 °F 93% 29.65 in 0.0 mi ESE 23.0 mph - N/A Fog Light Freezing Fog
2:55 AM 28.4 °F 15.1 °F 26.6 °F 93% 29.65 in 0.0 mi ESE 20.7 mph - N/A Fog Light Freezing Fog
3:55 AM 28.4 °F 20.4 °F 28.4 °F 100% 29.65 in 0.0 mi ESE 8.1 mph - N/A Fog Light Freezing Fog
4:55 AM 28.4 °F - 26.6 °F 93% 29.65 in 0.0 mi Calm Calm - N/A Fog Light Freezing Fog
5:55 AM 28.4 °F - 26.6 °F 93% 29.65 in 0.3 mi Calm Calm - N/A Fog Light Freezing Fog
6:55 AM 28.4 °F - 28.4 °F 100% 29.65 in 0.0 mi Calm Calm - N/A Fog Light Freezing Fog
7:00 AM 29 °F - 28 °F 92%  in 0 mi Calm Calm - - Fog Heavy Fog
7:55 AM 30.2 °F - 28.4 °F 93% 29.65 in 0.1 mi Calm Calm - N/A Fog Light Freezing Fog
8:55 AM 30.2 °F - 28.4 °F 93% 29.65 in 0.0 mi Calm Calm - N/A Fog Light Freezing Fog
9:55 AM 30.2 °F 21.9 °F 28.4 °F 93% 29.62 in 0.1 mi SSE 9.2 mph - N/A Fog Light Freezing Fog
10:55 AM 30.2 °F 24.3 °F 30.2 °F 100% 29.62 in 0.0 mi SSE 5.8 mph - N/A Fog Light Freezing Fog
11:55 AM 30.2 °F 24.3 °F 30.2 °F 100% 29.62 in 0.0 mi SSE 5.8 mph - N/A Fog Light Freezing Fog
12:55 PM 30.2 °F 24.3 °F 30.2 °F 100% 29.59 in 0.3 mi ESE 5.8 mph - N/A Fog Light Freezing Fog
1:00 PM 31 °F - 29 °F 91%  in 0 mi ESE 5.8 mph - - Fog Heavy Fog
1:55 PM 30.2 °F 22.6 °F 30.2 °F 100% 29.56 in 0.5 mi West 8.1 mph - N/A Fog Light Freezing Fog
2:55 PM 32.0 °F 26.4 °F 30.2 °F 93% 29.56 in 0.3 mi West 5.8 mph - N/A Fog Light Freezing Fog
3:55 PM 30.2 °F 21.9 °F 28.4 °F 93% 29.56 in - West 9.2 mph - N/A   Clear
4:55 PM 21.2 °F 5.6 °F 15.8 °F 80% 29.56 in 6.2 mi North 20.7 mph - N/A   Scattered Clouds
5:55 PM 23.0 °F 9.2 °F 21.2 °F 93% 29.56 in 6.2 mi NNW 17.3 mph - N/A   Scattered Clouds
6:55 PM 23.0 °F 8.7 °F 17.6 °F 80% 29.56 in 6.2 mi NNW 18.4 mph - N/A   Scattered Clouds
7:00 PM 22 °F - 18 °F 79%  in 9 mi NNW 18.4 mph - -   Partly Cloudy
7:55 PM 23.0 °F 8.0 °F 17.6 °F 80% 29.53 in 6.2 mi NNW 20.7 mph - N/A   Scattered Clouds
8:55 PM 21.2 °F 5.6 °F 19.4 °F 93% 29.53 in 6.2 mi NNW 20.7 mph - N/A   Mostly Cloudy
9:55 PM 21.2 °F 4.9 °F 19.4 °F 93% 29.53 in 0.0 mi NNW 23.0 mph - N/A Fog Light Freezing Fog
10:55 PM 21.2 °F 4.2 °F 19.4 °F 93% 29.53 in 0.0 mi NNW 25.3 mph - N/A Fog Light Freezing Fog
11:55 PM 21.2 °F 3.3 °F 19.4 °F 93% 29.56 in - NNW 28.8 mph - N/A Fog Light Freezing Fog